カタログに戻る

NOAA 16 DEB

運用中SSO
NORAD 41657·DEBRIS·🇺🇸 United States

打ち上げ Sep 21, 2000 から Vandenberg Space Force Base

Loading…

次のパス (今後24時間)

TLE

最新Source: Space-Track

元期: Sep 14, 2026, 09:51 UTC

1 41657U 00055NW  26257.41080607  .00002545  00000-0  93833-3 0  9996
2 41657  98.6262 322.4909 0011955 224.1949 135.8281 14.33373259538812

AllMySatでNOAA 16 DEBをリアルタイム追跡

Download on the App Store